HS3HXZ-1 Weather Reports


time (UTC)temp
C
wind
direction
speed
KPH
gust
KPH
rain 1hr
cm
rain 24hr
cm
rain mn
cm
humidity
%
barometer
mb
20260903161848 25 0 0.0 0.0 0.00 0.00 0.00 30 1007.0
20260903160323 25 0 0.0 0.0 0.00 0.00 0.00 31 1007.0
20260903154758 25 0 0.0 0.0 0.00 0.00 0.00 31 1007.0
20260903153234 26 0 0.0 0.0 0.00 0.00 0.00 31 1007.0
20260903151709 26 0 0.0 0.0 0.00 0.00 0.00 30 1007.0
20260903150145 26 0 0.0 0.0 0.00 0.00 0.00 30 1007.0
20260903144620 26 0 0.0 0.0 0.00 0.00 0.00 30 1006.0
20260903143056 26 0 0.0 0.0 0.00 0.00 0.00 32 1007.0
20260903141531 27 0 0.0 0.0 0.00 0.00 0.00 31 1006.0
20260903140007 27 0 0.0 0.0 0.00 0.00 0.00 31 1006.0
20260903134442 28 0 0.0 0.0 0.00 0.00 0.00 31 1006.0
20260903132918 30 0 0.0 0.0 0.00 0.00 0.00 31 1005.0
20260903131354 31 0 0.0 0.0 0.00 0.00 0.00 32 1005.0
20260903125829 35 0 0.0 0.0 0.00 0.00 0.00 49 1005.0
20260903124305 36 0 0.0 0.0 0.00 0.00 0.00 49 1005.0
20260903122740 36 0 0.0 0.0 0.00 0.00 0.00 49 1004.0
20260903121216 36 0 0.0 0.0 0.00 0.00 0.00 49 1004.0
20260903115651 36 0 0.0 0.0 0.00 0.00 0.00 49 1004.0
20260903114127 36 0 0.0 0.0 0.00 0.00 0.00 49 1004.0
20260903112602 36 0 0.0 0.0 0.00 0.00 0.00 48 1004.0
20260903111038 36 0 0.0 0.0 0.00 0.00 0.00 48 1003.0
20260903105513 36 0 0.0 0.0 0.00 0.00 0.00 47 1003.0
20260903103949 35 0 0.0 0.0 0.00 0.00 0.00 47 1003.0
20260903102424 35 0 0.0 0.0 0.00 0.00 0.00 47 1003.0
20260903100900 35 0 0.0 0.0 0.00 0.00 0.00 46 1003.0
20260903095335 35 0 0.0 0.0 0.00 0.00 0.00 45 1003.0
20260903093811 34 0 0.0 0.0 0.00 0.00 0.00 44 1003.0
20260903092246 33 0 0.0 0.0 0.00 0.00 0.00 44 1003.0
20260903090722 32 0 0.0 0.0 0.00 0.00 0.00 42 1003.0
20260903085158 31 0 0.0 0.0 0.00 0.00 0.00 39 1003.0
20260903083633 28 0 0.0 0.0 0.00 0.00 0.00 40 1004.0
20260903082108 28 0 0.0 0.0 0.00 0.00 0.00 37 1004.0
20260903080515 28 0 0.0 0.0 0.00 0.00 0.00 37 1004.0
20260903075540 27 0 0.0 0.0 0.00 0.00 0.00 37 1004.0
20260903074015 27 0 0.0 0.0 0.00 0.00 0.00 38 1004.0
20260903073352 27 0 0.0 0.0 0.00 0.00 0.00 39 1004.0